Flag for Albania Weather past 2 weeks in Durrës, Albania

Now
66 °F

Passing clouds.


Feels Like: 66 °F
Forecast: 73 / 84 °F
Wind: 2 mph from North

Location: Tirana Airport

Current Time: Aug 29, 2014 at 8:10:42 AM

Latest Report: Aug 29, 2014 at 7:20 AM


Visibility: N/A

Pressure: 29.92 "Hg

Humidity: 83%

Dew point: 61 °F

Location of DurrësLocation

Historic Weather in Durrës — Graph

°F

Durrës temperature yesterday

Maximum temperature yesterday: 91 °F (at 2:50 PM)
Minimum temperature yesterday: 64 °F (at 2:50 AM)
Average temperature yesterday: 76 °F

Past Weeks' High & Low Weather Summary

 TemperatureHumidityPressure
High95 °F (Aug 14, 11:50 AM)94% (Aug 18, 2:50 AM)30.04 "Hg (Aug 18, 2:50 AM)
Low59 °F (Aug 19, 4:20 AM)25% (Aug 27, 11:50 AM)29.80 "Hg (Aug 14, 3:20 PM)
Average76 °F64%29.93 "Hg
* Reported Aug 14 6:20 AM — Aug 29 6:50 AM, Durrës, Weather by CustomWeather, © 2014

Note: Actual official high and low records may vary slightly from our data, if they occured in-between our weather recording intervals... More about our weather records

Advertising

Durrës weather history for previous 24 hours

 ConditionsComfort  
Time TempWeatherWind HumidityBarometerVisibility
6:50 AM
Aug 29
64 °FPassing clouds.2 mph88%29.92 "HgN/A
6:20 AM64 °FPassing clouds.No wind88%29.92 "HgN/A
5:50 AM64 °FPassing clouds.No wind88%29.92 "HgN/A
5:20 AM66 °FPassing clouds.2 mph83%29.92 "HgN/A
4:50 AM64 °FPassing clouds.2 mph88%29.92 "HgN/A
4:20 AM66 °FClear.3 mph88%29.92 "Hg10 mi
3:50 AM64 °FClear.3 mph88%29.89 "Hg10 mi
3:20 AM64 °FClear.3 mph88%29.89 "Hg10 mi
2:50 AM64 °FClear.3 mph88%29.89 "Hg10 mi
2:20 AM64 °FClear.2 mph88%29.89 "Hg10 mi
1:50 AM66 °FClear.2 mph83%29.89 "Hg10 mi
1:20 AM66 °FClear.No wind83%29.89 "Hg10 mi
12:50 AM66 °FClear.No wind88%29.92 "Hg10 mi
12:20 AM66 °FClear.No wind83%29.89 "Hg10 mi
11:50 PM
Aug 28
66 °FClear.2 mph88%29.89 "Hg10 mi
11:20 PM68 °FClear.No wind83%29.89 "Hg10 mi
10:20 PM73 °FClear.No wind61%29.89 "Hg10 mi
9:20 PM73 °FClear.No wind74%29.89 "Hg10 mi
8:50 PM75 °FClear.1 mph65%29.89 "Hg10 mi
8:20 PM75 °FSunny.2 mph65%29.89 "Hg10 mi
7:50 PM77 °FSunny.No wind61%29.86 "Hg10 mi
7:20 PM79 °FSunny.2 mph54%29.86 "Hg10 mi
6:50 PM81 °FSunny.6 mph51%29.86 "Hg10 mi
6:20 PM82 °FSunny.9 mph45%29.86 "Hg10 mi
5:50 PM84 °FSunny.10 mph43%29.86 "Hg10 mi
5:20 PM84 °FSunny.14 mph40%29.86 "Hg10 mi
4:50 PM86 °FSunny.15 mph38%29.83 "Hg10 mi
4:20 PM88 °FSunny.16 mph35%29.83 "Hg10 mi
3:50 PM90 °FSunny.16 mph36%29.83 "Hg10 mi
3:20 PM91 °FSunny.15 mph36%29.86 "Hg10 mi
2:50 PM91 °FSunny.14 mph36%29.86 "Hg10 mi
2:20 PM90 °FPassing clouds.8 mph33%29.86 "HgN/A
1:50 PM90 °FPassing clouds.8 mph33%29.86 "HgN/A
1:20 PM90 °FPassing clouds.7 mph33%29.86 "HgN/A
12:50 PM88 °FPassing clouds.5 mph40%29.86 "HgN/A
12:20 PM88 °FPassing clouds.5 mph40%29.89 "HgN/A
11:50 AM88 °FScattered clouds.3 mph38%29.89 "HgN/A
11:20 AM84 °FScattered clouds.3 mph40%29.89 "HgN/A
10:50 AM86 °FScattered clouds.No wind38%29.89 "HgN/A
10:20 AM82 °FScattered clouds.No wind45%29.89 "HgN/A
9:50 AM79 °FScattered clouds.3 mph51%29.89 "HgN/A
9:20 AM77 °FScattered clouds.No wind57%29.89 "HgN/A
8:50 AM73 °FScattered clouds.2 mph65%29.89 "HgN/A
8:20 AM72 °FPassing clouds.3 mph65%29.89 "HgN/A
Weather by CustomWeather, © 2014

See weather overviewHow to use our weather pages